Location: Vancouver
(49.2500°N, 123.1330°W)
Time: 17:38:07
(UTC-08:00)

ISS - All Passes

Search period start: 21 January 2017 00:00
Search period end: 31 January 2017 00:00
Orbit: 399 x 410 km, 51.6° (Epoch: 22 January)

Date Brightness Start Highest point End Pass type
(mag) Time Alt. Az. Time Alt. Az. Time Alt. Az.
21 Jan - 01:02:45 10° W 01:05:57 55° N 01:09:09 10° ENE night (unlit)
21 Jan - 02:39:23 10° WNW 02:42:39 74° NNE 02:45:54 10° E night (unlit)
21 Jan - 04:16:03 10° W 04:18:58 30° SW 04:21:52 10° SSE night (unlit)
21 Jan - 22:34:08 10° SW 22:37:14 43° SSE 22:40:21 10° ENE night (unlit)
22 Jan - 00:10:26 10° W 00:13:40 63° NNW 00:16:55 10° ENE night (unlit)
22 Jan - 01:47:10 10° WNW 01:50:24 60° N 01:53:37 10° E night (unlit)
22 Jan - 03:23:43 10° WNW 03:26:52 48° SSW 03:30:00 10° SE night (unlit)
22 Jan - 21:42:20 10° SSW 21:45:09 27° SE 21:47:58 10° E night (unlit)
22 Jan - 23:18:09 10° WSW 23:21:25 79° NNW 23:24:41 10° ENE night (unlit)
23 Jan - 00:54:53 10° WNW 00:58:06 54° N 01:01:19 10° E night (unlit)
23 Jan - 02:31:27 10° WNW 02:34:41 73° SSW 02:37:56 10° ESE night (unlit)
23 Jan - 04:08:37 10° W 04:10:45 16° SW 04:12:51 10° S night (unlit)
23 Jan - 20:50:53 10° S 20:53:07 17° SE 20:55:21 10° E night (unlit)
23 Jan - 22:25:55 10° WSW 22:29:11 76° SSE 22:32:27 10° ENE night (unlit)
24 Jan - 00:02:35 10° W 00:05:47 53° N 00:08:59 10° ENE night (unlit)
24 Jan - 01:39:12 10° WNW 01:42:28 81° NNE 01:45:44 10° ESE night (unlit)
24 Jan - 03:15:57 10° W 03:18:42 26° SW 03:21:28 10° SSE night (unlit)
24 Jan - 20:00:33 10° SE 20:01:08 10° SE 20:01:42 10° SE night (unlit)
24 Jan - 21:33:49 10° SW 21:36:59 50° SSE 21:40:10 10° ENE night (unlit)
24 Jan - 23:10:14 10° W 23:13:28 59° N 23:16:42 10° ENE night (unlit)
25 Jan - 00:46:56 10° WNW 00:50:11 64° NNE 00:53:25 10° E night (unlit)
25 Jan - 02:23:30 10° WNW 02:26:36 41° SSW 02:29:41 10° SE night (unlit)
25 Jan - 20:41:53 10° SSW 20:44:50 32° SSE 20:47:47 10° E night (unlit)
25 Jan - 22:17:54 10° W 22:21:10 72° NNW 22:24:25 10° ENE night (unlit)
25 Jan - 23:54:38 10° WNW 23:57:52 55° N 00:01:05 10° E night (unlit)
26 Jan - 01:31:11 10° WNW 01:34:25 63° SSW 01:37:38 10° ESE night (unlit)
26 Jan - 03:08:40 10° WSW 03:10:23 14° SW 03:12:06 10° S night (unlit)
26 Jan - 19:50:14 10° SSW 19:52:44 20° SE 19:55:14 10° E visible
26 Jan - 21:25:36 10° WSW 21:28:53 86° SSE 21:32:09 10° ENE night (unlit)
26 Jan - 23:02:18 10° W 23:05:30 53° N 23:08:43 10° ENE night (unlit)
27 Jan - 00:38:54 10° WNW 00:42:10 90° NNE 00:45:25 10° ESE night (unlit)
27 Jan - 02:15:45 10° W 02:18:20 22° SW 02:20:55 10° SSE night (unlit)
27 Jan - 18:59:12 10° SSE 19:00:41 13° SE 19:02:10 10° ESE visible
27 Jan - 20:33:24 10° SW 20:36:37 59° SSE 20:39:50 10° ENE visible
27 Jan - 22:09:55 10° W 22:13:09 56° N 22:16:23 10° ENE night (unlit)
27 Jan - 23:46:36 10° WNW 23:49:51 69° NNE 23:53:06 10° E night (unlit)
28 Jan - 01:23:12 10° W 01:26:13 35° SSW 01:29:12 10° SE night (unlit)
28 Jan - 19:41:21 10° SW 19:44:25 37° SSE 19:47:28 10° E visible
28 Jan - 21:17:32 10° W 21:20:47 66° NNW 21:24:03 10° ENE night (unlit)
28 Jan - 22:54:16 10° WNW 22:57:30 57° N 23:00:44 10° E night (unlit)
29 Jan - 00:30:49 10° WNW 00:34:00 54° SSW 00:37:12 10° SE night (unlit)
29 Jan - 02:08:47 10° WSW 02:09:54 11° SW 02:11:00 10° SSW night (unlit)
29 Jan - 18:49:32 10° SSW 18:52:15 24° SE 18:54:57 10° E visible
29 Jan - 20:25:11 10° WSW 20:28:28 85° NNW 20:31:44 10° ENE visible
29 Jan - 22:01:54 10° WNW 22:05:07 53° N 22:08:20 10° E night (unlit)
29 Jan - 23:38:28 10° WNW 23:41:44 81° SSW 23:44:59 10° ESE night (unlit)
30 Jan - 01:15:28 10° W 01:17:51 19° SW 01:20:11 10° S night (unlit)
30 Jan - 17:58:11 10° S 18:00:08 15° SE 18:02:06 10° E visible
30 Jan - 19:32:54 10° WSW 19:36:08 68° SSE 19:39:24 10° ENE visible
30 Jan - 21:09:30 10° W 21:12:43 55° N 21:15:56 10° ENE night (unlit)
30 Jan - 22:46:08 10° WNW 22:49:24 75° NNE 22:52:40 10° ESE night (unlit)
